CDT,Max TemperatureF,Mean TemperatureF,Min TemperatureF,Max Dew PointF,MeanDew PointF,Min DewpointF,Max Humidity, Mean Humidity, Min Humidity, Max Sea Level PressureIn, Mean Sea Level PressureIn, Min Sea Level PressureIn, Max VisibilityMiles, Mean VisibilityMiles, Min VisibilityMiles, Max Wind SpeedMPH, Mean Wind SpeedMPH, Max Gust SpeedMPH,PrecipitationIn, CloudCover, Events, WindDirDegrees
2013-5-1,68,52,35,55,39,30,87,77,58,30.38,30.05,29.71,10,8,2,33,21,43,0.14,7,,26
2013-5-2,53,42,30,32,28,25,87,63,35,30.55,30.48,30.39,10,9,3,33,21,44,0.09,5,,359
2013-5-3,59,42,26,30,25,21,86,56,26,30.42,30.20,30.04,10,10,10,22,10,29,0.00,1,,338
2013-5-4,55,42,30,36,28,21,75,57,38,30.14,30.05,30.02,10,10,10,30,15,37,0.00,4,,348
2013-5-5,64,53,42,45,40,36,87,66,48,30.20,30.14,30.08,10,10,10,16,10,20,0.00,4,,11
2013-5-6,69,52,35,48,42,34,93,66,37,30.16,30.09,30.02,10,8,0,12,3,,0.00,2,,97
2013-5-7,73,63,53,55,52,46,88,72,47,30.06,29.98,29.85,10,10,7,32,12,52,0.64,5,Thunderstorm,153
2013-5-8,77,66,55,61,55,50,88,74,50,29.99,29.88,29.77,10,10,7,33,12,46,0.35,2,Thunderstorm,133
2013-5-9,68,59,50,55,52,46,94,78,56,30.05,29.96,29.88,10,9,4,18,7,21,0.03,3,,331
2013-5-10,69,58,48,52,49,45,93,70,46,30.14,30.09,30.05,10,9,5,16,9,20,0.00,4,,357
2013-5-11,66,56,46,46,40,30,87,57,28,30.31,30.23,30.12,10,10,10,25,10,32,0.00,0,,358
2013-5-12,75,57,39,48,42,34,81,58,38,30.27,30.15,30.02,10,10,10,23,8,31,0.00,0,,152
2013-5-13,89,66,42,57,49,37,93,60,24,30.08,30.01,29.93,10,10,4,22,6,25,0.00,0,,152
2013-5-14,96,78,60,55,42,37,82,33,14,29.93,29.85,29.76,10,10,10,28,15,36,0.00,0,,206
2013-5-15,86,73,60,61,53,48,83,52,33,29.86,29.81,29.77,10,10,10,23,14,28,0.00,0,,178
2013-5-16,78,68,57,59,58,54,94,71,47,29.90,29.85,29.77,10,8,2,16,9,25,0.00,4,,156
2013-5-17,84,68,53,63,59,50,88,68,45,29.90,29.85,29.79,10,9,0,21,10,28,0.00,1,,150
2013-5-18,89,76,64,70,65,54,88,70,43,29.85,29.74,29.60,10,8,3,26,15,43,0.03,5,Thunderstorm,145
2013-5-19,82,71,59,63,55,50,82,60,34,29.77,29.62,29.53,10,10,9,28,15,37,0.07,2,Thunderstorm,215
2013-5-20,82,66,50,54,47,43,88,58,26,29.83,29.74,29.68,10,10,10,22,9,29,0.04,1,,291
2013-5-21,75,62,50,45,41,39,76,50,27,29.87,29.82,29.75,10,10,10,25,13,33,0.00,1,,309
2013-5-22,78,62,46,50,44,39,82,56,28,29.97,29.90,29.86,10,10,9,17,9,24,0.00,0,,329
2013-5-23,73,62,51,54,49,45,82,63,47,30.16,30.11,29.98,10,10,10,17,11,21,0.00,3,,74
2013-5-24,77,66,55,66,58,52,88,73,57,30.19,30.12,30.00,10,10,9,26,17,33,0.00,6,,139
2013-5-25,87,76,64,66,61,57,83,62,40,30.04,29.98,29.88,10,10,8,32,22,41,0.00,2,,179
2013-5-26,91,78,66,66,64,61,88,65,38,29.98,29.86,29.77,10,10,10,31,20,38,0.00,2,,170
2013-5-27,93,81,69,66,65,63,83,60,38,29.77,29.63,29.47,10,10,10,34,23,44,0.00,1,Thunderstorm,173
2013-5-28,96,81,66,66,60,39,88,58,20,29.64,29.61,29.52,10,10,2,41,13,55,0.01,1,Thunderstorm,173
2013-5-29,80,70,60,66,62,54,88,74,56,29.65,29.57,29.43,10,10,7,40,23,50,0.56,3,Thunderstorm,165
2013-5-30,78,68,57,59,55,52,94,75,44,29.72,29.64,29.55,10,10,7,23,12,28,1.01,4,Thunderstorm,118
2013-5-31,84,70,55,61,50,37,94,56,19,29.82,29.73,29.65,10,10,8,18,8,26,0.00,1,,327